Weather History for KXMR - August, 2014

Change the Weather History Date:

Friday, August 8, 2014

  Actual Average (KCOF) Record (KCOF)
Temperature  
Mean Temperature 80 °F -  
Max Temperature 90 °F 85 °F 94 °F (2011)
Min Temperature 71 °F 74 °F 75 °F (1996)
Cooling Degree Days 15    
Growing Degree Days 30 (Base 50)    
Moisture  
Dew Point 73 °F    
Average Humidity 84    
Maximum Humidity 100    
Minimum Humidity 64    
Precipitation  
Precipitation 0.01 in - - ()
Sea Level Pressure  
Sea Level Pressure 30.03 in    
Wind  
Wind Speed 4 mph (South)    
Max Wind Speed 28 mph    
Max Gust Speed 40 mph    
Visibility 10 miles    
Events Rain , Thunderstorm    
Averages and records for this station are not official NWS values.
T = Trace of Precipitation, MM = Missing Value Source: NWS Daily Summary

Daily Weather History Graph

Daily Weather History Graph

Search for Another Location

Airport or City:

Trip Planner

Search our weather history database for the weather conditions in past years. The results will help you decide how hot, cold, wet, or windy it might be!

Date:

Astronomy

Aug. 08, 2014 Rise Set
Actual Time 6:47 AM EDT 8:07 PM EDT
Civil Twilight 6:22 AM EDT 8:32 PM EDT
Nautical Twilight 5:52 AM EDT 9:02 PM EDT
Astronomical Twilight 5:21 AM EDT 9:33 PM EDT
Moon 6:15 PM EDT (8/8) 4:21 AM EDT (8/8)
Length of Visible Light 14h 09m
Length of Day
13h 19m
Waxing Gibbous, 93% of the Moon is Illuminated
Aug 8
Waxing Gibbous
Aug 10
Full
Aug 17
Last Quarter
Aug 25
New
Sep 2
First Quarter

Hourly Weather History & Observations

Time (EDT) Temp. Heat Index Dew Point Humidity Pressure Visibility Wind Dir Wind Speed Gust Speed Precip Events Conditions
12:58 AM 76.1 °F - 73.8 °F 92% 29.99 in 10.0 mi Calm Calm - N/A Thunderstorm Clear
1:58 AM 74.1 °F - 72.5 °F 95% 30.00 in 10.0 mi Calm Calm - N/A   Clear
2:58 AM 74.3 °F - 72.5 °F 94% 29.99 in 10.0 mi Calm Calm - N/A   Clear
3:58 AM 72.7 °F - 71.6 °F 96% 30.00 in 10.0 mi Calm Calm - N/A   Clear
4:33 AM 71.6 °F - 71.6 °F 100% 29.99 in 7.0 mi Calm Calm - N/A   Clear
4:48 AM 73.4 °F - 71.6 °F 94% 29.99 in 10.0 mi Calm Calm - N/A   Clear
4:53 AM 73.4 °F - 71.6 °F 94% 29.99 in 8.0 mi Calm Calm - N/A   Clear
4:58 AM 72.9 °F - 71.4 °F 95% 30.00 in 7.0 mi Calm Calm - N/A   Clear
5:13 AM 73.4 °F - 71.6 °F 94% 29.99 in 10.0 mi Calm Calm - N/A   Clear
5:58 AM 72.5 °F - 70.9 °F 95% 30.00 in 10.0 mi Calm Calm - N/A   Clear
6:58 AM 73.4 °F - 71.4 °F 93% 30.01 in 10.0 mi Calm Calm - N/A   Clear
7:58 AM 77.7 °F - 74.8 °F 91% 30.04 in 10.0 mi Calm Calm - N/A   Clear
8:58 AM 82.8 °F 89.5 °F 74.5 °F 76% 30.06 in 10.0 mi South 9.2 mph - N/A   Clear
9:58 AM 85.5 °F 93.0 °F 73.9 °F 68% 30.06 in 10.0 mi Calm Calm - N/A   Clear
10:58 AM 87.1 °F 95.4 °F 74.1 °F 65% 30.08 in 10.0 mi SSW 8.1 mph - N/A   Clear
11:58 AM 88.2 °F 98.0 °F 75.2 °F 65% 30.07 in 10.0 mi South 8.1 mph - N/A   Partly Cloudy
12:58 PM 89.1 °F 99.6 °F 75.4 °F 64% 30.06 in 10.0 mi SSE 8.1 mph - 0.00 in   Clear
1:58 PM 88.2 °F 99.5 °F 76.5 °F 68% 30.04 in 10.0 mi NE 4.6 mph - N/A   Partly Cloudy
2:58 PM 88.9 °F 100.3 °F 76.1 °F 66% 30.02 in 10.0 mi SE 9.2 mph - N/A   Clear
3:58 PM 88.7 °F 100.4 °F 76.3 °F 67% 29.99 in 10.0 mi SE 10.4 mph - N/A   Clear
4:58 PM 89.1 °F 101.4 °F 76.6 °F 67% 29.98 in 10.0 mi East 8.1 mph - N/A   Clear
5:58 PM 87.4 °F 98.2 °F 76.1 °F 69% 29.98 in 10.0 mi ESE 11.5 mph - N/A   Clear
6:58 PM 85.5 °F 95.9 °F 76.6 °F 75% 29.99 in 10.0 mi SE 15.0 mph - N/A   Clear
7:35 PM 84.2 °F 94.1 °F 77.0 °F 79% 30.03 in 10.0 mi SSW 18.4 mph 23.0 mph N/A   Clear
7:50 PM 77.0 °F - 71.6 °F 83% 30.04 in 9.0 mi SW 27.6 mph 40.3 mph N/A Rain Light Rain
7:58 PM 76.5 °F - 71.8 °F 85% 30.06 in 8.0 mi WSW 17.3 mph 40.3 mph 0.00 in Rain Light Rain
8:13 PM 75.2 °F - 71.6 °F 89% 30.04 in 8.0 mi WSW 16.1 mph 25.3 mph N/A Rain Light Rain
8:23 PM 75.2 °F - 71.6 °F 89% 30.05 in 10.0 mi WSW 10.4 mph - N/A Rain Light Rain
8:40 PM 75.2 °F - 71.6 °F 89% 30.05 in 10.0 mi South 5.8 mph - N/A   Clear
8:58 PM 75.7 °F - 72.1 °F 89% 30.06 in 10.0 mi Variable 2.3 mph - 0.01 in   Clear
9:58 PM 76.3 °F - 72.5 °F 88% 30.05 in 10.0 mi NNW 1.2 mph - 0.00 in Thunderstorm Clear
10:01 PM 77.0 °F - 73.4 °F 89% 30.04 in 10.0 mi Calm Calm - N/A Thunderstorm Light Drizzle
10:38 PM 75.2 °F - 73.4 °F 94% 30.07 in 10.0 mi SSE 1.2 mph - N/A   Clear
10:58 PM 74.5 °F - 72.7 °F 94% 30.08 in 10.0 mi ESE 3.5 mph - 0.00 in   Clear
11:58 PM 75.7 °F - 72.9 °F 91% 30.06 in 10.0 mi Calm Calm - N/A   Clear